| time (UTC) | temp F | wind direction | speed knots | gust knots | rain 1hr in | rain 24hr in | rain mn in | humidity % | barometer mb |
| 20260505101745 | 67 | 43 | 1.7 | 1.7 | 0.00 | 0.00 | 0.00 | 79 | 1001.1 |
| 20260505101240 | 67 | 47 | 2.6 | 2.6 | 0.00 | 0.00 | 0.00 | 79 | 1001.0 |
| 20260505100737 | 67 | 31 | 1.7 | 1.7 | 0.00 | 0.00 | 0.00 | 78 | 1000.9 |
| 20260505100234 | 67 | 49 | 0.9 | 1.7 | 0.00 | 0.00 | 0.00 | 79 | 1001.0 |
| 20260505095729 | 67 | 43 | 0.9 | 1.7 | 0.00 | 0.00 | 0.00 | 78 | 1000.8 |
| 20260505095228 | 67 | 55 | 0.9 | 1.7 | 0.00 | 0.00 | 0.00 | 78 | 1000.7 |
| 20260505094723 | 68 | 60 | 0.9 | 0.9 | 0.00 | 0.00 | 0.00 | 78 | 1000.8 |
| 20260505094219 | 68 | 52 | 0.9 | 0.9 | 0.00 | 0.00 | 0.00 | 77 | 1000.7 |
| 20260505093716 | 68 | 49 | 1.7 | 3.5 | 0.00 | 0.00 | 0.00 | 77 | 1000.9 |
| 20260505093214 | 68 | 30 | 1.7 | 1.7 | 0.00 | 0.00 | 0.00 | 76 | 1000.6 |
| 20260505092710 | 69 | 41 | 0.9 | 1.7 | 0.00 | 0.00 | 0.00 | 76 | 1000.9 |
| 20260505092209 | 69 | 48 | 0.9 | 0.9 | 0.00 | 0.00 | 0.00 | 76 | 1000.7 |
| 20260505091705 | 69 | 68 | 0.9 | 1.7 | 0.00 | 0.00 | 0.00 | 76 | 1000.8 |
| 20260505091203 | 69 | 50 | 0.9 | 0.9 | 0.00 | 0.00 | 0.00 | 76 | 1000.8 |
| 20260505090701 | 69 | 57 | 0.0 | 0.0 | 0.00 | 0.00 | 0.00 | 76 | 1001.0 |
| 20260505090159 | 69 | 58 | 0.0 | 0.0 | 0.00 | 0.00 | 0.00 | 75 | 1001.0 |
| 20260505085656 | 69 | 58 | 0.0 | 0.9 | 0.00 | 0.00 | 0.00 | 75 | 1000.9 |
| 20260505085154 | 69 | 57 | 0.0 | 0.0 | 0.00 | 0.00 | 0.00 | 75 | 1001.0 |
| 20260505084651 | 69 | 46 | 0.9 | 1.7 | 0.00 | 0.00 | 0.00 | 75 | 1001.1 |
| 20260505084150 | 69 | 57 | 0.0 | 0.0 | 0.00 | 0.00 | 0.00 | 75 | 1001.0 |
| 20260505083647 | 69 | 56 | 0.0 | 0.9 | 0.00 | 0.00 | 0.00 | 74 | 1000.9 |
| 20260505083143 | 69 | 42 | 0.9 | 1.7 | 0.00 | 0.00 | 0.00 | 74 | 1001.2 |
| 20260505082639 | 69 | 54 | 0.9 | 0.9 | 0.00 | 0.00 | 0.00 | 74 | 1001.0 |
| 20260505082136 | 69 | 55 | 1.7 | 2.6 | 0.00 | 0.00 | 0.00 | 74 | 1001.0 |
| 20260505081632 | 69 | 60 | 0.0 | 0.9 | 0.00 | 0.00 | 0.00 | 74 | 1001.2 |
| 20260505081130 | 69 | 49 | 0.0 | 0.0 | 0.00 | 0.00 | 0.00 | 74 | 1001.2 |
| 20260505080626 | 69 | 46 | 0.9 | 0.9 | 0.00 | 0.00 | 0.00 | 74 | 1001.1 |
| 20260505080123 | 69 | 58 | 0.9 | 0.9 | 0.00 | 0.00 | 0.00 | 74 | 1001.2 |
| 20260505075619 | 69 | 45 | 0.0 | 0.9 | 0.00 | 0.00 | 0.00 | 73 | 1001.2 |
| 20260505075116 | 69 | 45 | 0.9 | 0.9 | 0.00 | 0.00 | 0.00 | 74 | 1001.3 |
| 20260505074613 | 69 | 44 | 0.9 | 1.7 | 0.00 | 0.00 | 0.00 | 73 | 1001.5 |
| 20260505074110 | 69 | 48 | 0.0 | 0.9 | 0.00 | 0.00 | 0.00 | 73 | 1001.5 |
| 20260505073607 | 69 | 52 | 0.0 | 0.0 | 0.00 | 0.00 | 0.00 | 74 | 1001.5 |
| 20260505073106 | 69 | 50 | 1.7 | 1.7 | 0.00 | 0.00 | 0.00 | 73 | 1001.6 |
| 20260505072601 | 69 | 44 | 0.9 | 0.9 | 0.00 | 0.00 | 0.00 | 73 | 1001.8 |
| 20260505072058 | 69 | 34 | 1.7 | 1.7 | 0.00 | 0.00 | 0.00 | 73 | 1001.8 |
| 20260505071553 | 69 | 42 | 0.9 | 1.7 | 0.00 | 0.00 | 0.00 | 74 | 1001.9 |
| 20260505071051 | 69 | 41 | 1.7 | 2.6 | 0.00 | 0.00 | 0.00 | 74 | 1002.0 |
| 20260505070548 | 69 | 43 | 0.9 | 0.9 | 0.00 | 0.00 | 0.00 | 74 | 1002.0 |
| 20260505070044 | 70 | 44 | 1.7 | 1.7 | 0.00 | 0.00 | 0.00 | 74 | 1001.9 |
| 20260505065540 | 69 | 41 | 0.9 | 0.9 | 0.00 | 0.00 | 0.00 | 74 | 1002.0 |
| 20260505065037 | 69 | 43 | 0.9 | 0.9 | 0.00 | 0.00 | 0.00 | 74 | 1002.1 |
| 20260505064534 | 69 | 42 | 1.7 | 1.7 | 0.00 | 0.00 | 0.00 | 74 | 1002.2 |
| 20260505064032 | 69 | 39 | 0.9 | 0.9 | 0.00 | 0.00 | 0.00 | 75 | 1002.2 |
| 20260505063529 | 69 | 27 | 0.0 | 0.0 | 0.00 | 0.00 | 0.00 | 75 | 1002.4 |
| 20260505063025 | 69 | 38 | 0.0 | 0.0 | 0.00 | 0.00 | 0.00 | 75 | 1002.4 |
| 20260505062522 | 69 | 42 | 0.0 | 0.9 | 0.00 | 0.00 | 0.00 | 74 | 1002.2 |
| 20260505062020 | 69 | 32 | 0.9 | 0.9 | 0.00 | 0.00 | 0.00 | 73 | 1002.1 |
| 20260505061517 | 70 | 54 | 0.0 | 0.0 | 0.00 | 0.00 | 0.00 | 73 | 1001.9 |
| 20260505061015 | 70 | 55 | 0.0 | 0.0 | 0.00 | 0.00 | 0.00 | 72 | 1001.5 |
| 20260505060512 | 69 | 92 | 0.0 | 1.7 | 0.00 | 0.00 | 0.00 | 73 | 1001.5 |
| 20260505060008 | 69 | 67 | 0.0 | 0.0 | 0.00 | 0.00 | 0.00 | 72 | 1001.3 |
| 20260505055504 | 70 | 67 | 0.0 | 0.0 | 0.00 | 0.00 | 0.00 | 72 | 1001.1 |
| 20260505055000 | 70 | 68 | 0.9 | 0.9 | 0.00 | 0.00 | 0.00 | 71 | 1001.3 |
| 20260505054458 | 70 | 86 | 0.9 | 0.9 | 0.00 | 0.00 | 0.00 | 71 | 1001.4 |
| 20260505053956 | 70 | 62 | 0.9 | 0.9 | 0.00 | 0.00 | 0.00 | 71 | 1001.3 |
| 20260505053453 | 70 | 79 | 0.9 | 1.7 | 0.00 | 0.00 | 0.00 | 71 | 1001.3 |
| 20260505052949 | 70 | 72 | 0.0 | 0.0 | 0.00 | 0.00 | 0.00 | 71 | 1001.5 |
| 20260505052447 | 70 | 97 | 1.7 | 1.7 | 0.00 | 0.00 | 0.00 | 70 | 1001.6 |
| 20260505051944 | 70 | 92 | 0.9 | 1.7 | 0.00 | 0.00 | 0.00 | 70 | 1001.7 |
| 20260505051440 | 70 | 140 | 1.7 | 1.7 | 0.00 | 0.00 | 0.00 | 69 | 1002.0 |
| 20260505050939 | 70 | 67 | 0.9 | 0.9 | 0.00 | 0.00 | 0.00 | 69 | 1001.8 |
| 20260505050437 | 70 | 83 | 1.7 | 1.7 | 0.00 | 0.00 | 0.00 | 69 | 1001.7 |
| 20260505041404 | 71 | 130 | 0.9 | 1.7 | 0.00 | 0.00 | 0.00 | 66 | 1001.5 |
| 20260505040901 | 71 | 81 | 2.6 | 3.5 | 0.00 | 0.00 | 0.00 | 66 | 1001.6 |
| 20260505040359 | 70 | 96 | 1.7 | 1.7 | 0.00 | 0.00 | 0.00 | 66 | 1001.8 |
| 20260505035855 | 70 | 91 | 1.7 | 1.7 | 0.00 | 0.00 | 0.00 | 66 | 1001.8 |
| 20260505035351 | 70 | 81 | 0.9 | 1.7 | 0.00 | 0.00 | 0.00 | 66 | 1002.0 |
| 20260505034849 | 70 | 88 | 3.5 | 5.2 | 0.00 | 0.00 | 0.00 | 66 | 1002.1 |
| 20260505034345 | 70 | 116 | 0.9 | 0.9 | 0.00 | 0.00 | 0.00 | 67 | 1002.0 |
| 20260505033842 | 70 | 11 | 0.9 | 0.9 | 0.00 | 0.00 | 0.00 | 67 | 1001.8 |
| 20260505033339 | 71 | 63 | 0.9 | 1.7 | 0.00 | 0.00 | 0.00 | 66 | 1002.4 |
| 20260505032838 | 71 | 91 | 0.9 | 2.6 | 0.00 | 0.00 | 0.00 | 65 | 1002.2 |
| 20260505032334 | 71 | 83 | 1.7 | 1.7 | 0.00 | 0.00 | 0.00 | 64 | 1002.1 |
| 20260505031831 | 71 | 125 | 1.7 | 2.6 | 0.00 | 0.00 | 0.00 | 64 | 1002.4 |
| 20260505031327 | 71 | 90 | 0.9 | 0.9 | 0.00 | 0.00 | 0.00 | 64 | 1002.4 |
| 20260505030825 | 71 | 78 | 0.9 | 0.9 | 0.00 | 0.00 | 0.00 | 63 | 1002.6 |
| 20260505030321 | 71 | 70 | 0.9 | 0.9 | 0.00 | 0.00 | 0.00 | 63 | 1002.5 |
| 20260505025816 | 71 | 88 | 2.6 | 2.6 | 0.00 | 0.00 | 0.00 | 63 | 1002.4 |
| 20260505025314 | 71 | 63 | 1.7 | 1.7 | 0.00 | 0.00 | 0.00 | 63 | 1002.5 |
| 20260505024812 | 71 | 23 | 0.9 | 2.6 | 0.00 | 0.00 | 0.00 | 63 | 1002.5 |
| 20260505024309 | 71 | 91 | 0.9 | 1.7 | 0.00 | 0.00 | 0.00 | 63 | 1002.8 |
| 20260505023807 | 71 | 81 | 0.9 | 0.9 | 0.00 | 0.00 | 0.00 | 63 | 1002.8 |
| 20260505023303 | 71 | 91 | 0.9 | 0.9 | 0.00 | 0.00 | 0.00 | 62 | 1002.9 |
| 20260505022801 | 71 | 69 | 0.9 | 1.7 | 0.00 | 0.00 | 0.00 | 62 | 1002.7 |
| 20260505022258 | 72 | 95 | 1.7 | 1.7 | 0.00 | 0.00 | 0.00 | 62 | 1002.8 |
| 20260505021754 | 72 | 74 | 0.9 | 1.7 | 0.00 | 0.00 | 0.00 | 62 | 1002.5 |
| 20260505021251 | 72 | 71 | 0.9 | 1.7 | 0.00 | 0.00 | 0.00 | 62 | 1002.6 |
| 20260505020747 | 72 | 81 | 0.9 | 0.9 | 0.00 | 0.00 | 0.00 | 62 | 1002.7 |
| 20260505020242 | 72 | 77 | 0.9 | 0.9 | 0.00 | 0.00 | 0.00 | 62 | 1002.7 |
| 20260505015740 | 72 | 96 | 0.9 | 1.7 | 0.00 | 0.00 | 0.00 | 62 | 1002.6 |
| 20260505015237 | 72 | 58 | 0.9 | 0.9 | 0.00 | 0.00 | 0.00 | 62 | 1002.9 |
| 20260505014734 | 73 | 85 | 1.7 | 1.7 | 0.00 | 0.00 | 0.00 | 62 | 1002.7 |
| 20260505014231 | 73 | 69 | 0.9 | 1.7 | 0.00 | 0.00 | 0.00 | 61 | 1002.4 |
| 20260505013728 | 73 | 73 | 0.0 | 0.9 | 0.00 | 0.00 | 0.00 | 61 | 1002.5 |
| 20260505013225 | 73 | 91 | 1.7 | 1.7 | 0.00 | 0.00 | 0.00 | 61 | 1002.6 |
| 20260505012723 | 73 | 68 | 0.9 | 0.9 | 0.00 | 0.00 | 0.00 | 60 | 1002.6 |
| 20260505012220 | 74 | 94 | 0.9 | 0.9 | 0.00 | 0.00 | 0.00 | 61 | 1002.6 |
| 20260505011716 | 74 | 101 | 1.7 | 1.7 | 0.00 | 0.00 | 0.00 | 60 | 1002.4 |
| 20260505011213 | 74 | 82 | 0.9 | 0.9 | 0.00 | 0.00 | 0.00 | 60 | 1002.7 |
| 20260505010708 | 74 | 41 | 3.5 | 5.2 | 0.00 | 0.00 | 0.00 | 60 | 1002.5 |
| 20260505010205 | 74 | 55 | 1.7 | 2.6 | 0.00 | 0.00 | 0.00 | 59 | 1002.4 |
| 20260505005701 | 75 | 90 | 1.7 | 1.7 | 0.00 | 0.00 | 0.00 | 59 | 1002.5 |
| 20260505005159 | 75 | 53 | 1.7 | 2.6 | 0.00 | 0.00 | 0.00 | 58 | 1002.3 |
| 20260505004656 | 75 | 83 | 0.9 | 1.7 | 0.00 | 0.00 | 0.00 | 58 | 1002.5 |
| 20260505004152 | 75 | 53 | 3.5 | 3.5 | 0.00 | 0.00 | 0.00 | 57 | 1002.4 |
| 20260505003649 | 75 | 94 | 1.7 | 1.7 | 0.00 | 0.00 | 0.00 | 58 | 1002.5 |
| 20260505003147 | 76 | 140 | 2.6 | 3.5 | 0.00 | 0.00 | 0.00 | 57 | 1002.5 |
| 20260505002643 | 76 | 110 | 1.7 | 2.6 | 0.00 | 0.00 | 0.00 | 57 | 1002.5 |
| 20260505002141 | 76 | 123 | 1.7 | 1.7 | 0.00 | 0.00 | 0.00 | 57 | 1002.5 |
| 20260505001638 | 76 | 107 | 0.9 | 1.7 | 0.00 | 0.00 | 0.00 | 57 | 1002.7 |
| 20260505001135 | 76 | 128 | 3.5 | 5.2 | 0.00 | 0.00 | 0.00 | 56 | 1002.4 |
| 20260505000632 | 76 | 92 | 1.7 | 1.7 | 0.00 | 0.00 | 0.00 | 56 | 1002.8 |
| 20260505000131 | 76 | 103 | 2.6 | 5.2 | 0.00 | 0.00 | 0.00 | 56 | 1002.9 |
| 20260504235626 | 77 | 131 | 2.6 | 2.6 | 0.00 | 0.00 | 0.00 | 57 | 1002.9 |
| 20260504235123 | 77 | 82 | 2.6 | 2.6 | 0.00 | 0.00 | 0.00 | 57 | 1003.0 |
| 20260504234620 | 77 | 88 | 1.7 | 1.7 | 0.00 | 0.00 | 0.00 | 56 | 1003.0 |
| 20260504234118 | 78 | 116 | 1.7 | 1.7 | 0.00 | 0.00 | 0.00 | 57 | 1002.9 |
| 20260504233613 | 78 | 122 | 2.6 | 3.5 | 0.00 | 0.00 | 0.00 | 56 | 1003.0 |
| 20260504233109 | 78 | 81 | 1.7 | 3.5 | 0.00 | 0.00 | 0.00 | 55 | 1002.9 |
| 20260504232607 | 78 | 65 | 0.9 | 1.7 | 0.00 | 0.00 | 0.00 | 56 | 1002.8 |
| 20260504232104 | 78 | 102 | 2.6 | 3.5 | 0.00 | 0.00 | 0.00 | 56 | 1003.0 |
| 20260504231600 | 78 | 112 | 0.9 | 1.7 | 0.00 | 0.00 | 0.00 | 56 | 1002.9 |
| 20260504231056 | 78 | 71 | 1.7 | 3.5 | 0.00 | 0.00 | 0.00 | 55 | 1003.0 |
| 20260504230553 | 78 | 116 | 2.6 | 3.5 | 0.00 | 0.00 | 0.00 | 54 | 1002.8 |
| 20260504230052 | 78 | 103 | 2.6 | 3.5 | 0.00 | 0.00 | 0.00 | 55 | 1002.9 |
| 20260504225549 | 78 | 118 | 3.5 | 3.5 | 0.00 | 0.00 | 0.00 | 54 | 1003.0 |
| 20260504225046 | 78 | 144 | 4.3 | 6.1 | 0.00 | 0.00 | 0.00 | 54 | 1002.9 |
| 20260504224542 | 79 | 102 | 3.5 | 5.2 | 0.00 | 0.00 | 0.00 | 54 | 1002.8 |
| 20260504224040 | 79 | 98 | 1.7 | 2.6 | 0.00 | 0.00 | 0.00 | 54 | 1003.0 |
| 20260504223536 | 79 | 78 | 0.9 | 1.7 | 0.00 | 0.00 | 0.00 | 54 | 1003.0 |
| 20260504223032 | 79 | 108 | 2.6 | 2.6 | 0.00 | 0.00 | 0.00 | 54 | 1002.9 |
| 20260504222529 | 79 | 101 | 2.6 | 2.6 | 0.00 | 0.00 | 0.00 | 53 | 1002.9 |
| 20260504222027 | 79 | 228 | 1.7 | 5.2 | 0.00 | 0.00 | 0.00 | 52 | 1002.9 |
| 20260504221524 | 79 | 99 | 1.7 | 2.6 | 0.00 | 0.00 | 0.00 | 53 | 1002.8 |
| 20260504221020 | 79 | 106 | 2.6 | 2.6 | 0.00 | 0.00 | 0.00 | 52 | 1002.9 |
| 20260504220517 | 79 | 116 | 1.7 | 3.5 | 0.00 | 0.00 | 0.00 | 53 | 1002.8 |
| 20260504220014 | 80 | 137 | 1.7 | 1.7 | 0.00 | 0.00 | 0.00 | 53 | 1002.7 |
| 20260504215510 | 80 | 37 | 0.9 | 1.7 | 0.00 | 0.00 | 0.00 | 52 | 1003.0 |
| 20260504215008 | 80 | 147 | 3.5 | 3.5 | 0.00 | 0.00 | 0.00 | 51 | 1003.1 |
| 20260504214504 | 80 | 152 | 4.3 | 7.0 | 0.00 | 0.00 | 0.00 | 52 | 1003.0 |
| 20260504214000 | 80 | 2 | 2.6 | 3.5 | 0.00 | 0.00 | 0.00 | 50 | 1003.1 |
| 20260504213456 | 80 | 94 | 0.9 | 2.6 | 0.00 | 0.00 | 0.00 | 51 | 1003.1 |
| 20260504212954 | 80 | 110 | 3.5 | 6.1 | 0.00 | 0.00 | 0.00 | 51 | 1003.1 |
| 20260504212449 | 80 | 103 | 0.9 | 1.7 | 0.00 | 0.00 | 0.00 | 52 | 1003.3 |
| 20260504211947 | 80 | 148 | 3.5 | 5.2 | 0.00 | 0.00 | 0.00 | 51 | 1003.2 |
| 20260504211443 | 80 | 126 | 2.6 | 6.1 | 0.00 | 0.00 | 0.00 | 51 | 1003.3 |
| 20260504210941 | 80 | 173 | 7.0 | 14.8 | 0.00 | 0.00 | 0.00 | 50 | 1003.3 |
| 20260504210438 | 79 | 176 | 2.6 | 3.5 | 0.00 | 0.00 | 0.00 | 51 | 1003.2 |
| 20260504205935 | 80 | 119 | 3.5 | 7.0 | 0.00 | 0.00 | 0.00 | 51 | 1003.3 |
| 20260504205432 | 80 | 127 | 2.6 | 2.6 | 0.00 | 0.00 | 0.00 | 51 | 1003.4 |
| 20260504204931 | 80 | 128 | 3.5 | 3.5 | 0.00 | 0.00 | 0.00 | 51 | 1003.7 |
| 20260504204429 | 80 | 131 | 2.6 | 2.6 | 0.00 | 0.00 | 0.00 | 52 | 1003.6 |
| 20260504203928 | 80 | 187 | 5.2 | 8.7 | 0.00 | 0.00 | 0.00 | 51 | 1003.6 |
| 20260504203425 | 80 | 42 | 6.1 | 9.6 | 0.00 | 0.00 | 0.00 | 52 | 1003.8 |
| 20260504202920 | 80 | 124 | 1.7 | 2.6 | 0.00 | 0.00 | 0.00 | 52 | 1003.9 |
| 20260504202417 | 80 | 97 | 2.6 | 2.6 | 0.00 | 0.00 | 0.00 | 52 | 1003.9 |
| 20260504201914 | 80 | 70 | 4.3 | 6.1 | 0.00 | 0.00 | 0.00 | 52 | 1004.0 |
| 20260504201412 | 80 | 117 | 4.3 | 6.1 | 0.00 | 0.00 | 0.00 | 50 | 1004.2 |
| 20260504200909 | 80 | 128 | 4.3 | 5.2 | 0.00 | 0.00 | 0.00 | 50 | 1004.1 |
| 20260504200405 | 80 | 87 | 3.5 | 3.5 | 0.00 | 0.00 | 0.00 | 51 | 1004.2 |
| 20260504195902 | 80 | 130 | 5.2 | 7.8 | 0.00 | 0.00 | 0.00 | 50 | 1004.3 |
| 20260504195358 | 81 | 72 | 1.7 | 1.7 | 0.00 | 0.00 | 0.00 | 50 | 1004.5 |
| 20260504194854 | 80 | 87 | 2.6 | 2.6 | 0.00 | 0.00 | 0.00 | 48 | 1004.6 |
| 20260504194350 | 80 | 209 | 2.6 | 2.6 | 0.00 | 0.00 | 0.00 | 50 | 1004.7 |
| 20260504193847 | 80 | 145 | 3.5 | 5.2 | 0.00 | 0.00 | 0.00 | 51 | 1004.6 |
| 20260504193344 | 80 | 140 | 6.1 | 7.8 | 0.00 | 0.00 | 0.00 | 49 | 1004.7 |
| 20260504192843 | 81 | 127 | 3.5 | 5.2 | 0.00 | 0.00 | 0.00 | 50 | 1004.8 |
| 20260504192340 | 81 | 175 | 4.3 | 7.0 | 0.00 | 0.00 | 0.00 | 50 | 1004.7 |
| 20260504191838 | 81 | 130 | 2.6 | 2.6 | 0.00 | 0.00 | 0.00 | 51 | 1004.7 |
| 20260504191336 | 81 | 148 | 3.5 | 5.2 | 0.00 | 0.00 | 0.00 | 50 | 1004.8 |
| 20260504190831 | 81 | 165 | 2.6 | 3.5 | 0.00 | 0.00 | 0.00 | 52 | 1004.8 |
| 20260504190327 | 81 | 199 | 3.5 | 3.5 | 0.00 | 0.00 | 0.00 | 51 | 1004.8 |
| 20260504185824 | 80 | 133 | 4.3 | 7.0 | 0.00 | 0.00 | 0.00 | 50 | 1005.0 |
| 20260504185321 | 80 | 118 | 3.5 | 5.2 | 0.00 | 0.00 | 0.00 | 50 | 1005.0 |
| 20260504184817 | 80 | 142 | 2.6 | 5.2 | 0.00 | 0.00 | 0.00 | 51 | 1005.0 |
| 20260504184313 | 80 | 99 | 2.6 | 2.6 | 0.00 | 0.00 | 0.00 | 53 | 1005.1 |
| 20260504183809 | 81 | 117 | 7.8 | 15.6 | 0.00 | 0.00 | 0.00 | 50 | 1005.2 |
| 20260504183306 | 81 | 157 | 2.6 | 5.2 | 0.00 | 0.00 | 0.00 | 51 | 1005.2 |
| 20260504182804 | 81 | 343 | 2.6 | 5.2 | 0.00 | 0.00 | 0.00 | 48 | 1005.1 |
| 20260504182301 | 80 | 122 | 1.7 | 2.6 | 0.00 | 0.00 | 0.00 | 52 | 1005.3 |
| 20260504181759 | 80 | 173 | 6.1 | 8.7 | 0.00 | 0.00 | 0.00 | 50 | 1005.3 |
| 20260504181255 | 80 | 259 | 5.2 | 9.6 | 0.00 | 0.00 | 0.00 | 50 | 1005.4 |
| 20260504180755 | 80 | 112 | 3.5 | 5.2 | 0.00 | 0.00 | 0.00 | 52 | 1005.5 |
| 20260504180253 | 80 | 114 | 5.2 | 8.7 | 0.00 | 0.00 | 0.00 | 49 | 1005.4 |
| 20260504175750 | 80 | 130 | 3.5 | 5.2 | 0.00 | 0.00 | 0.00 | 50 | 1005.6 |
| 20260504175247 | 80 | 141 | 4.3 | 5.2 | 0.00 | 0.00 | 0.00 | 51 | 1005.7 |
| 20260504174745 | 80 | 164 | 4.3 | 7.8 | 0.00 | 0.00 | 0.00 | 49 | 1005.7 |
| 20260504174243 | 79 | 104 | 2.6 | 2.6 | 0.00 | 0.00 | 0.00 | 50 | 1005.9 |
| 20260504173739 | 80 | 123 | 7.8 | 11.3 | 0.00 | 0.00 | 0.00 | 48 | 1006.1 |
| 20260504173236 | 79 | 112 | 4.3 | 6.1 | 0.00 | 0.00 | 0.00 | 50 | 1006.1 |
| 20260504172733 | 80 | 120 | 3.5 | 3.5 | 0.00 | 0.00 | 0.00 | 50 | 1006.1 |
| 20260504172229 | 80 | 166 | 3.5 | 5.2 | 0.00 | 0.00 | 0.00 | 50 | 1005.9 |
| 20260504171725 | 79 | 109 | 5.2 | 7.0 | 0.00 | 0.00 | 0.00 | 50 | 1006.0 |
| 20260504171222 | 79 | 162 | 2.6 | 2.6 | 0.00 | 0.00 | 0.00 | 48 | 1005.9 |
| 20260504170719 | 79 | 124 | 6.1 | 7.8 | 0.00 | 0.00 | 0.00 | 49 | 1006.0 |
| 20260504170217 | 80 | 167 | 3.5 | 5.2 | 0.00 | 0.00 | 0.00 | 50 | 1006.1 |
| 20260504160135 | 78 | 92 | 4.3 | 7.0 | 0.00 | 0.00 | 0.00 | 47 | 1006.6 |
| 20260504151102 | 75 | 53 | 1.7 | 1.7 | 0.00 | 0.00 | 0.00 | 49 | 1007.0 |
| 20260504150600 | 74 | 102 | 3.5 | 7.0 | 0.00 | 0.00 | 0.00 | 49 | 1007.2 |
| 20260504141026 | 69 | 76 | 0.9 | 0.9 | 0.00 | 0.00 | 0.00 | 55 | 1007.7 |
| 20260504140522 | 69 | 140 | 1.7 | 1.7 | 0.00 | 0.00 | 0.00 | 55 | 1007.7 |
| 20260504130447 | 63 | 154 | 1.7 | 1.7 | 0.00 | 0.00 | 0.00 | 63 | 1008.2 |
| 20260504110334 | 61 | 89 | 0.9 | 1.7 | 0.00 | 0.00 | 0.00 | 64 | 1008.2 |